Port Heiden, AK

5:39 AM AKDT on March 25, 2017 (GMT -0800)
Port Heiden

Weather History for PAPH - September, 2013

Change the Weather History Date:

Tuesday, September 3, 2013

  Actual Average Record
Temperature  
Mean Temperature 54 °F -  
Max Temperature 60 °F 53 °F 66 °F (2016)
Min Temperature 48 °F 44 °F 39 °F (2002)
Degree Days  
Heating Degree Days 11    
Growing Degree Days 4 (Base 50)    
Moisture  
Dew Point 44 °F    
Average Humidity 72    
Maximum Humidity 82    
Minimum Humidity 52    
Precipitation  
Precipitation 0.01 in - - ()
Sea Level Pressure  
Sea Level Pressure 29.22 in    
Wind  
Wind Speed 15 mph (SSW)    
Max Wind Speed 24 mph    
Max Gust Speed 33 mph    
Visibility 9 miles    
Events      
Averages and records for this station are not official NWS values.
T = Trace of Precipitation, MM = Missing Value Source: NWS Daily Summary

Daily Weather History Graph

Daily Weather History Graph

Search for Another Location

Airport or City:

Trip Planner

Search our weather history database for the weather conditions in past years. The results will help you decide how hot, cold, wet, or windy it might be!

Date:

Astronomy

Sep. 03, 2013 Rise Set
Actual Time 7:41 AM AKDT 9:24 PM AKDT
Civil Twilight 7:01 AM AKDT 10:04 PM AKDT
Nautical Twilight 6:11 AM AKDT 10:54 PM AKDT
Astronomical Twilight 5:12 AM AKDT 11:52 PM AKDT
Moon 5:58 AM AKDT (9/3) 8:19 PM AKDT (9/3)
Length of Visible Light 15h 02m
Length of Day
13h 42m
Waning Crescent, 3% of the Moon is Illuminated
Sep 3
Waning Crescent
Sep 5
New
Sep 12
First Quarter
Sep 19
Full
Sep 26
Last Quarter

Hourly Weather History & Observations

Time (AKDT) Temp. Dew Point Humidity Pressure Visibility Wind Dir Wind Speed Gust Speed Precip Events Conditions
12:16 AM 53.6 °F 41.0 °F 62% 29.19 in 10.0 mi SSE 19.6 mph - N/A   Overcast
12:36 AM 53.6 °F 42.8 °F 67% 29.19 in 10.0 mi SE 17.3 mph - N/A   Overcast
12:56 AM 53.6 °F 41.0 °F 62% 29.19 in 10.0 mi SE 15.0 mph - N/A   Overcast
1:16 AM 53.6 °F 41.0 °F 62% 29.19 in 10.0 mi SE 13.8 mph - N/A   Scattered Clouds
1:36 AM 53.6 °F 41.0 °F 62% 29.19 in 10.0 mi SSE 15.0 mph - N/A   Scattered Clouds
1:56 AM 53.6 °F 41.0 °F 62% 29.18 in 10.0 mi SSE 17.3 mph 21.9 mph N/A   Overcast
2:16 AM 53.6 °F 41.0 °F 62% 29.17 in 10.0 mi SE 17.3 mph - N/A   Overcast
2:36 AM 53.6 °F 42.8 °F 67% 29.17 in 10.0 mi SE 15.0 mph - N/A   Mostly Cloudy
2:56 AM 53.6 °F 41.0 °F 62% 29.17 in 10.0 mi SE 16.1 mph - N/A   Partly Cloudy
3:16 AM 53.6 °F 41.0 °F 62% 29.16 in 10.0 mi SE 16.1 mph - N/A   Partly Cloudy
3:36 AM 51.8 °F 42.8 °F 71% 29.16 in 10.0 mi SSE 11.5 mph - N/A   Mostly Cloudy
3:56 AM 51.8 °F 41.0 °F 67% 29.15 in 10.0 mi SSE 13.8 mph - N/A   Scattered Clouds
4:16 AM 51.8 °F 41.0 °F 67% 29.14 in 10.0 mi SSE 16.1 mph - N/A   Partly Cloudy
4:36 AM 53.6 °F 41.0 °F 62% 29.13 in 10.0 mi SSE 17.3 mph - N/A   Mostly Cloudy
4:56 AM 53.6 °F 41.0 °F 62% 29.13 in 10.0 mi SSE 18.4 mph - N/A   Overcast
5:16 AM 51.8 °F 42.8 °F 71% 29.13 in 10.0 mi SSE 20.7 mph - N/A   Overcast
5:36 AM 51.8 °F 42.8 °F 71% 29.12 in 10.0 mi SE 16.1 mph - N/A   Overcast
5:56 AM 51.8 °F 42.8 °F 71% 29.12 in 10.0 mi SE 15.0 mph - N/A   Overcast
6:16 AM 51.8 °F 42.8 °F 71% 29.12 in 10.0 mi SE 13.8 mph 20.7 mph N/A   Overcast
6:36 AM 51.8 °F 44.6 °F 76% 29.12 in 10.0 mi SSE 13.8 mph - N/A   Overcast
6:56 AM 50.0 °F 42.8 °F 76% 29.12 in 10.0 mi SSE 12.7 mph - N/A   Mostly Cloudy
7:16 AM 50.0 °F 44.6 °F 82% 29.12 in 10.0 mi SSE 13.8 mph - N/A   Mostly Cloudy
7:36 AM 51.8 °F 42.8 °F 71% 29.14 in 10.0 mi SSW 13.8 mph - N/A   Overcast
7:56 AM 50.0 °F 42.8 °F 76% 29.15 in 8.0 mi SW 19.6 mph 25.3 mph N/A   Overcast
8:16 AM 50.0 °F 42.8 °F 76% 29.16 in 9.0 mi SW 17.3 mph - N/A   Mostly Cloudy
8:36 AM 50.0 °F 44.6 °F 82% 29.17 in 10.0 mi SW 16.1 mph - N/A   Overcast
8:56 AM 50.0 °F 44.6 °F 82% 29.17 in 10.0 mi SSW 16.1 mph - N/A   Overcast
9:16 AM 51.8 °F 44.6 °F 76% 29.18 in 10.0 mi SW 17.3 mph - N/A   Overcast
9:36 AM 51.8 °F 44.6 °F 76% 29.18 in 10.0 mi SW 16.1 mph - N/A   Overcast
9:56 AM 51.8 °F 44.6 °F 76% 29.19 in 10.0 mi SW 18.4 mph - N/A   Overcast
10:16 AM 51.8 °F 44.6 °F 76% 29.19 in 10.0 mi SW 16.1 mph - N/A   Overcast
10:36 AM 51.8 °F 44.6 °F 76% 29.20 in 10.0 mi WSW 13.8 mph 19.6 mph N/A   Overcast
10:56 AM 53.6 °F 46.4 °F 77% 29.20 in 10.0 mi WSW 16.1 mph 20.7 mph N/A   Mostly Cloudy
11:16 AM 53.6 °F 44.6 °F 72% 29.21 in 10.0 mi SW 11.5 mph - N/A   Overcast
11:36 AM 53.6 °F 44.6 °F 72% 29.22 in 10.0 mi SW 13.8 mph - N/A   Overcast
11:56 AM 55.4 °F 44.6 °F 67% 29.23 in 10.0 mi SSW 15.0 mph - N/A   Overcast
12:16 PM 57.2 °F 44.6 °F 63% 29.23 in 10.0 mi SSW 12.7 mph - N/A   Overcast
12:36 PM 55.4 °F 44.6 °F 67% 29.24 in 10.0 mi SSE 10.4 mph - N/A   Overcast
12:56 PM 55.4 °F 44.6 °F 67% 29.24 in 10.0 mi WSW 12.7 mph - N/A   Overcast
1:16 PM 53.6 °F 44.6 °F 72% 29.25 in 10.0 mi WSW 8.1 mph - N/A   Mostly Cloudy
1:36 PM 57.2 °F 44.6 °F 63% 29.25 in 10.0 mi SW 6.9 mph - N/A   Mostly Cloudy
1:56 PM 57.2 °F 42.8 °F 59% 29.25 in 10.0 mi WSW 9.2 mph - N/A   Mostly Cloudy
2:16 PM 60.8 °F 42.8 °F 52% 29.24 in 10.0 mi SW 9.2 mph - N/A   Overcast
2:36 PM 55.4 °F 46.4 °F 72% 29.25 in 10.0 mi West 12.7 mph - N/A   Mostly Cloudy
2:56 PM 53.6 °F 44.6 °F 72% 29.26 in 10.0 mi West 10.4 mph - N/A   Mostly Cloudy
3:16 PM 53.6 °F 46.4 °F 77% 29.26 in 5.0 mi West 6.9 mph - 0.01 in   Overcast
3:36 PM 53.6 °F 46.4 °F 77% 29.27 in 10.0 mi West 11.5 mph - 0.01 in   Overcast
3:56 PM 51.8 °F 44.6 °F 76% 29.27 in 9.0 mi West 9.2 mph - 0.01 in   Overcast
4:16 PM 51.8 °F 44.6 °F 76% 29.26 in 10.0 mi West 5.8 mph - N/A   Overcast
4:36 PM 53.6 °F 46.4 °F 77% 29.26 in 10.0 mi Calm Calm - N/A   Overcast
4:56 PM 53.6 °F 44.6 °F 72% 29.26 in 10.0 mi SSW 4.6 mph - N/A   Overcast
5:16 PM 53.6 °F 44.6 °F 72% 29.26 in 10.0 mi SW 3.5 mph - N/A   Overcast
5:36 PM 53.6 °F 44.6 °F 72% 29.26 in 10.0 mi Calm Calm - N/A   Overcast
5:56 PM 53.6 °F 44.6 °F 72% 29.27 in 8.0 mi West 10.4 mph - 0.01 in   Overcast
6:16 PM 51.8 °F 44.6 °F 76% 29.27 in 5.0 mi West 11.5 mph - 0.06 in   Overcast
6:36 PM 51.8 °F 44.6 °F 76% 29.26 in 7.0 mi West 8.1 mph - 0.07 in   Overcast
6:56 PM 51.8 °F 44.6 °F 76% 29.27 in 9.0 mi WSW 8.1 mph - 0.08 in   Overcast
7:16 PM 51.8 °F 44.6 °F 76% 29.27 in 5.0 mi West 16.1 mph 21.9 mph 0.02 in   Overcast
7:36 PM 51.8 °F 44.6 °F 76% 29.27 in 8.0 mi WSW 17.3 mph - 0.04 in   Overcast
7:56 PM 51.8 °F 44.6 °F 76% 29.27 in 9.0 mi WSW 17.3 mph 25.3 mph 0.04 in   Overcast
8:16 PM 51.8 °F 44.6 °F 76% 29.28 in 7.0 mi WSW 16.1 mph 24.2 mph 0.01 in   Mostly Cloudy
8:36 PM 50.0 °F 44.6 °F 82% 29.29 in 7.0 mi WSW 13.8 mph 23.0 mph 0.01 in   Overcast
8:56 PM 51.8 °F 44.6 °F 76% 29.30 in 10.0 mi SW 17.3 mph 20.7 mph 0.01 in   Overcast
9:16 PM 50.0 °F 44.6 °F 82% 29.30 in 10.0 mi SW 16.1 mph - N/A   Overcast
9:36 PM 51.8 °F 44.6 °F 76% 29.31 in 10.0 mi SW 16.1 mph 21.9 mph N/A   Overcast
9:56 PM 51.8 °F 44.6 °F 76% 29.33 in 10.0 mi SW 18.4 mph 24.2 mph N/A   Overcast
10:16 PM 48.2 °F 42.8 °F 82% 29.34 in 4.0 mi WSW 24.2 mph 33.4 mph N/A   Overcast
10:36 PM 48.2 °F 42.8 °F 82% 29.35 in 10.0 mi WSW 20.7 mph 27.6 mph N/A   Overcast
10:56 PM 48.2 °F 41.0 °F 76% 29.36 in 5.0 mi WSW 18.4 mph 28.8 mph N/A   Overcast
11:16 PM 48.2 °F 41.0 °F 76% 29.37 in 10.0 mi WSW 19.6 mph 25.3 mph N/A   Mostly Cloudy
11:36 PM 48.2 °F 42.8 °F 82% 29.38 in 8.0 mi SW 18.4 mph 21.9 mph 0.01 in   Overcast
11:56 PM 48.2 °F 42.8 °F 82% 29.40 in 8.0 mi SW 19.6 mph 24.2 mph 0.01 in   Overcast